Погода Александров Гай

Погода Александров Гай : погода сейчас, прогноз погоды и архив. Всё, что Вы хотите узнать о погоде Александров Гай!

Хотите узнать прогноз погоды Александров Гай? Тогда Вам сюда: Погода Александров Гай

Поиск расширенной информации на нашем сайте:

Другие новости

Новости СМИ2

Главная страница сайта

Новости сайта

03.07.2017

Напоминаем, что на нашем специализированном сайте Метеоцентр.Азия вы можете получить высокодетализированные автоматические прогнозы погоды по пунктам России, СНГ и мира в авиационном формате (включающие направление и скорость ветра, видимость, явления погоды, количество и форму облачности, нижнюю и верхнюю границу облачности).


Погода Александров Гай - сегодня

Время (UTC), дата Ветер
(°,м/с) 
Видим.   Явления Облачность Т
(°С)
Тd
(°С)
f(%) Тe
(°С)
Pmin
(гПа)
dP
(гПа)
Po
(мм)
O2
(г/м3)
Тmin Tmax R s Состояние
почвы
21 17.04.18 200 (Ю) 10 км    10/0 верхняя 
[Ci sp]
+8.3 +3.7 73 +8  1019.2  0.2  762  297           
00 18.04.18 220 (ЮЗ) 10 км    10/0 средняя 
[Ac As]
+9 +4.7 74 +8  1019  0.1  762  297           
03 18.04.18 210 (ЮЗ) 10 км    9/0 средняя, верхняя 
[Ac As|Ci sp]
+9.4 +6.1 80 +9  1018.6  -0.4  762  296  +6.6        влажная 
12 18.04.18 250 (З) 6-11{13}  10 км  в посл. час дождь  10/10 570 м 
[Sc]
+19.3 +5.7 41 +19  1015.9  -0.8  760  285           
15 18.04.18 260 (З) 2{11}  10 км    10/10 600 м 
[Sc]
+15.9 +7.6 58 +17  1015.5  -0.5  759  288    +21.1  0.0     
03 19.04.18 210 (ЮЗ) 6{10}  10 км  в посл. час дождь  10/10 600 м 
[Sc]
+9.6 +9.1 97 +8  1007.9  -2.1  754  292  +9.6    0.6    влажная 
15 19.04.18 190 (Ю) 4{11}  10 км    8/3 1000 м средняя 
[Cu med, cong|Ac As]
+13.4 +8.3 71 +13  1002.3  -1.8  749  286    +14.8     
21 19.04.18 200 (Ю) 10 км    8/0 средняя 
[Ac As]
+8.3 +7.3 93 +8  1000.5  -1  748  291           
00 20.04.18 190 (Ю) 10 км    10/0 средняя 
[As op]
+5.8 +4.9 94 +6  999.7  -0.8  748  294           
03 20.04.18 190 (Ю) 4000 м  дымка  10/10 700 м 
[St]
+7.4 +6 91 +7  999.3  -0.4  747  292  +5.6    0.4    влажная 
09 20.04.18 080 (В) 10 км  {дождь}  9/3 1000 м средняя 
[Cu med, cong|Ac As]
+11.8 +10.6 92 +14  999.8  0.5  748  287           
15 20.04.18 040 (СВ) 10 км    9/8 600 м верхняя 
[Sc|Ci sp]
+12.7 +8.1 74 +13  1000.6  0.5  748  287    +15     
18 20.04.18 020 (С) 10 км    9/0 средняя 
[Ac As]
+9.8 +9.3 97 +9  1002.4  1.8  750  290           
03 21.04.18 350 (С) 3{11}  10 км    6/0 средняя 
[Ac As]
+3.6 +1.9 89 +2  1006.3  1.8  752  299  +3.5        влажная 
06 21.04.18 020 (С) 5{10}  10 км    6/0 средняя, верхняя 
[Ac trans|Ci sp]
+8.8 +1.1 58 +7  1007.5  1.3  753  294           
09 21.04.18 340 (С) 10 км    8/5 1000 м верхняя 
[Cu med, cong|Ci fib]
+11.5 +0.1 45 +11  1008.4  0.8  754  292           
12 21.04.18 350 (С) 10 км    5/5 1000 м 
[Cu med, cong]
+11.9 -1.2 40 +12  1007.5  -0.8  753  291           
18 21.04.18 200 (Ю) 10 км    ясно 
+5 -0.8 66 +4  1006.8  -0.5  753  298           
21 21.04.18 200 (Ю) 10 км    ясно 
+4.3 -0.5 71 +3  1004.9  -1.9  751  298           
03 22.04.18 200 (Ю) 7-11{11}  10 км    6/0 средняя, верхняя 
[Ac As|Ci sp]
+7.8 +3.7 75 +6  998.1  -3.5  746  292  +4        влажная 
15 22.04.18 290 (З) 5{12}  10 км  {ливн. осадки}  3/0 средняя, верхняя 
[Ac lent|Ci fib]
+12.3 +1.8 49 +11  998.7  2.1  747  288    +14.9     
18 22.04.18 270 (З) 10 км    8/0 средняя, верхняя 
[Ac As|Ci fib]
+6.9 +2.5 74 +7  1000.5  1.7  748  294           
21 22.04.18 260 (З) 10 км    3/0 средняя 
[Ac trans]
+3.1 +1.1 87 +4  1001.5  0.9  749  298           
00 23.04.18 320 (СЗ) 10 км    3/0 средняя 
[Ac As]
+1.2 -0.1 91 +2  1001.3  -0.2  749  300           
03 23.04.18 320 (СЗ) 4000 м  слаб. дождь{ливн. осадки}  10/10 500 м 
[Frnb]
+3.5 +2.8 95 +3  1002.8  1.5  750  298  +0.3      влажная 
Время (UTC), дата Ветер
(°,м/с) 
Видим.   Явления Облачность Т
(°С)
Тd
(°С)
f(%) Тe
(°С)
Pmin
(гПа)
dP
(гПа)
Po
(мм)
O2
(г/м3)
Тmin Tmax R s Состояние
почвы

Для получения пояснительной информации подведите курсор к названию столбца.

ПОГОДА Александров Гай - архив

Всё, что Вы хотите узнать о погоде Александров Гай - удобно и подробно!

Выберите нужную дату (начиная с 1 января 2015* года) и нажмите кнопку "Найти".
Будут отображены архивные сводки погоды по пункту Александров Гай, начиная с указанной даты.


Отображать данные в формате CSV (для использования в таблицах Excel)


Внимание! Наш архив погоды предназначен исключительно для личного некоммерческого использования в познавательных целях. Если Вам необходимы официальные справки о состоянии погоды (для производственных, юридических, коммерческих и т.п. целей), обращайтесь в органы Росгидромета.

*Примечание: данная дата относится к архиву по метеостанциям СССР (Россия, СНГ, Балтия).
Архив по метеостанциям Зарубежной Европы и Азии (кроме Китая) хранится 10 дней, по другим регионам земного шара (Китай, Африка, Америка, Австралия, Океания) - 1 день.

Александров Гай - район местоположения метеостанции


Название, широта, долгота, высота метеостанции:
Александров Гай 50.2°ш. 48.6°д. 25 м над ур. моря [Российская Федерация]

Дополнительная информация

В oтличие oт бoльшинства пoгoдных сайтoв мы публикуем пoдрoбную метеoинфoрмацию в детальнoм прoфессиoнальнoм фoрмате.

Характеристики температуры и влажнoсти вoздуха измеряются на высoте 2 м в тени вдали oт зданий и деревьев.
Скoрoсть ветра измеряется на высoте 10 м (на урoвне рoста челoвека скoрoсть ветра ниже в 1.5-2 раза). Если метеoстанция нахoдится в гoрoде или в лесу, тo скoрoсть ветра занижена на 2-4 м/с пo сравнению с oткрытым местoм. Скoрoсть ветра над акватoриями крупных рек и oзёр, а также на вершинах хoлмoв на 2-5 м/с выше, чем в oбычных услoвиях.
Атмoсфернoе давление в разных тoчках местнoсти мoжет значительнo oтличаться oт давления на метеoстанции, в зависимoсти oт услoвий рельефа (при пoдъёме на 10 м давление пoнижается примернo на 1 мм рт.ст.).